Сарыкемер

Казахстан     43°00′27″N   71°30′54″E
темп.,
°C
ветер,
м/с
пор.,
м/с
влажн.,
%
обл.,
%
осадки,
мм/ч
давл.,
гПа
погр.,
м
2 марта, вт
вт200:00+7ю34360 0.0 102143
03:00+7ю45330 0.0 102068
06:00+6ююз45340 0.0 102065
09:00+7ююз25340 0.0 1021123
12:00+13зюз913291 0.0 10211233
15:00+15з11152829 0.0 10201605
18:00+11сз6104165 0.0 10221208
21:00+6ссв335797 0.0 1024396
3 марта, ср
ср300:00+4с227598 0.1 1025167
03:00+2ссв3390100 0.0 1025200
06:00+2св2294100 0.6 1025197
09:00+1св1298100 3.4 102676
12:00+1св3495100 4.5 1025205
15:00+2св3495100 0.2 1024261
18:00+2в4596100 0.3 1023205
21:00+2в4597100 0.2 1024181
4 марта, чт
чт400:00+3юв1296100 1.4 102396
03:00+4ююв2393100 1.4 102298
06:00+3в119293 1.4 102222
09:00+4вюв018919 0.0 102224
12:00+9всв336154 0.0 1021565
15:00+12всв434689 0.0 1019740
18:00+10в456084 0.0 1017339
21:00+8ююв455561 0.0 101572
5 марта, пт
пт500:00+6зюз6138368 1.8 1018940
03:00+4зсз121983100 3.6 10241155
06:00+2сз5127491 3.6 1029669
09:00+2ююз12660 0.0 1033183
12:00+4с325517 0.0 10331029
15:00+5св556191 0.0 1031913
18:00+5всв685861 0.0 1028845
21:00+3в59710 0.0 1027305
6 марта, сб
сб600:00+1в24750 0.0 1026109
03:000в23800 0.0 102349
06:00−1всв11790 0.0 102122
09:00+1ссв116896 0.0 101867
12:00+6с224496 0.0 1014490
15:00+10с4436100 0.0 1012841
18:00+7с4451100 0.0 1013442
21:00+5сз1162100 0.0 101422